Tracking 29892 objects as of 21-Nov-2024
HD Live streaming from Space Station
objects crossing your sky now

BREEZE-M R/B

Track BREEZE-M R/B now!


NORAD ID: 28656
Int'l Code: 2004-008C
Perigee: 4,168.1 km
Apogee: 36,790.0 km
Inclination: 13.7 °
Period: 729.8 minutes
Semi major axis: 26850 km
RCS: 6.2799 m2 (large)
Launch date: March 15, 2004
Source: Commonwealth of Independent States (former USSR) (CIS)
Launch site: TYURATAM MISSILE AND SPACE COMPLEX (TTMTR)

Note: This is a ROCKET BODY
Your satellite tracking list
Your tracking list is empty




NASA's NSSDC Master Catalog

Two Line Element Set (TLE):
1 28656U 04008C   24325.41346350 -.00000485  00000-0  00000-0 0  9999
2 28656  13.6637   5.3514 6074847 211.3995  90.6735  1.97326557142933
Source of the keplerian elements: AFSPC